Osage River (Missouri), Taberville (06918250)

StateMissouriLatestPoor (153 cfs)
RiverOsage RiverRatingObservedEstimated
Updated2020-07-13 18:45 (46 minutes ago)Flood - The river is flooding. Obstacles can be treacherous or deadly. The river should be avoided at this stage for casual trips and definitely for the inexperienced. Trips should be attempted only with protective gear and equipment.Flood(none)38403
Discharge153 cfs (median: 603 cfs)High - The river is high and potentially dangerous, especially for the young and / or inexperienced. Normal stream obstacles are sometimes difficult to navigate. Extended distances can be attempted, but canoe travel may not be advisable.High(none)7197
Height9.68 feetGood - Conditions are ideal for a canoe or kayak. Boats typically will drag on fewer than one-quarter of riffles, if at all, and portages are unnecessary or rare. Normal float lengths can be attempted without a problem.Good(none)4305
TrendFalling (falling over 24 hours)Low - River is low but can still be floated. Some riffles are okay but most come with significant dragging and might need a portage. Float lengths should be reduced to accommodate low flow, dragging, and portages.Low(none)1188
USGSExternal icon USGS Site (External icon Google Maps)Poor - River is too low to float comfortably. Most or all riffles will drag or must be portaged and some obstacles (such as slick shelf rock) cause undue problems. Avoid the river at this stage for casual paddling trips.Poor(none)50

Trending Data

Plot Image

Trips for Osage River (Missouri), Taberville (06918250)

DateStartEndDistanceConditionDischargeHeightFishingDetails

A total of 0 rows are displayed.

Condition Descriptions

Fishing Conditions

Fish Species

Notes

Classic Trip List

The classic River Trips application is still available for use. It is updated with the new system using a data retrofit. It is no longer maintained. The original River Trips application is no longer updated (as of 1 Dec 2016) but can be checked for errors or for the condition of the data before it was converted to the new system.

Gauge Data Table

ObservationHeightDischargeMaximum
Discharge
Minimum
Discharge
Mean
Discharge
P05P10P20P25P50
(Median)
P75P80P90P95
2020-07-13 18:45 9.68 153 19300 (2015) 50 (2012) 3780 50 135 199 603 5820 9310 19300
2020-07-13 17:45 9.72 160 19300 (2015) 50 (2012) 3780 50 135 199 603 5820 9310 19300
2020-07-13 16:45 9.71 159 19300 (2015) 50 (2012) 3780 50 135 199 603 5820 9310 19300
2020-07-13 15:45 9.71 159 19300 (2015) 50 (2012) 3780 50 135 199 603 5820 9310 19300
2020-07-13 14:45 9.77 169 19300 (2015) 50 (2012) 3780 50 135 199 603 5820 9310 19300
2020-07-13 13:45 9.76 167 19300 (2015) 50 (2012) 3780 50 135 199 603 5820 9310 19300
2020-07-13 12:45 9.81 176 19300 (2015) 50 (2012) 3780 50 135 199 603 5820 9310 19300
2020-07-13 11:45 9.81 176 19300 (2015) 50 (2012) 3780 50 135 199 603 5820 9310 19300
2020-07-13 10:45 9.82 178 19300 (2015) 50 (2012) 3780 50 135 199 603 5820 9310 19300
2020-07-13 09:45 9.84 182 19300 (2015) 50 (2012) 3780 50 135 199 603 5820 9310 19300
2020-07-13 08:45 9.84 182 19300 (2015) 50 (2012) 3780 50 135 199 603 5820 9310 19300
2020-07-13 07:45 9.82 178 19300 (2015) 50 (2012) 3780 50 135 199 603 5820 9310 19300
2020-07-13 06:45 9.79 173 19300 (2015) 50 (2012) 3780 50 135 199 603 5820 9310 19300
2020-07-13 05:45 9.75 166 19300 (2015) 50 (2012) 3780 50 135 199 603 5820 9310 19300
2020-07-13 04:45 9.76 167 19300 (2015) 50 (2012) 3780 50 135 199 603 5820 9310 19300
2020-07-13 03:45 9.77 169 19300 (2015) 50 (2012) 3780 50 135 199 603 5820 9310 19300
2020-07-13 02:45 9.76 167 19300 (2015) 50 (2012) 3780 50 135 199 603 5820 9310 19300
2020-07-13 01:45 9.74 164 19300 (2015) 50 (2012) 3780 50 135 199 603 5820 9310 19300
2020-07-13 00:45 9.70 157 19300 (2015) 50 (2012) 3780 50 135 199 603 5820 9310 19300
2020-07-12 23:45 9.67 152 19800 (2015) 97 (2012) 4200 97 160 223 828 7160 10500 19800
2020-07-12 22:45 9.67 152 19800 (2015) 97 (2012) 4200 97 160 223 828 7160 10500 19800
2020-07-12 21:45 9.71 159 19800 (2015) 97 (2012) 4200 97 160 223 828 7160 10500 19800
2020-07-12 20:45 9.79 173 19800 (2015) 97 (2012) 4200 97 160 223 828 7160 10500 19800
2020-07-12 19:45 9.86 186 19800 (2015) 97 (2012) 4200 97 160 223 828 7160 10500 19800
2020-07-12 18:45 9.91 195 19800 (2015) 97 (2012) 4200 97 160 223 828 7160 10500 19800
2020-07-12 17:45 9.88 190 19800 (2015) 97 (2012) 4200 97 160 223 828 7160 10500 19800
2020-07-12 16:45 9.86 186 19800 (2015) 97 (2012) 4200 97 160 223 828 7160 10500 19800
2020-07-12 15:45 9.85 184 19800 (2015) 97 (2012) 4200 97 160 223 828 7160 10500 19800
2020-07-12 14:45 9.82 178 19800 (2015) 97 (2012) 4200 97 160 223 828 7160 10500 19800
2020-07-12 13:45 9.81 176 19800 (2015) 97 (2012) 4200 97 160 223 828 7160 10500 19800
2020-07-12 12:45 9.82 178 19800 (2015) 97 (2012) 4200 97 160 223 828 7160 10500 19800
2020-07-12 11:45 9.83 180 19800 (2015) 97 (2012) 4200 97 160 223 828 7160 10500 19800
2020-07-12 10:45 9.83 180 19800 (2015) 97 (2012) 4200 97 160 223 828 7160 10500 19800
2020-07-12 09:45 9.82 178 19800 (2015) 97 (2012) 4200 97 160 223 828 7160 10500 19800
2020-07-12 08:45 9.82 178 19800 (2015) 97 (2012) 4200 97 160 223 828 7160 10500 19800
2020-07-12 07:45 9.81 176 19800 (2015) 97 (2012) 4200 97 160 223 828 7160 10500 19800
2020-07-12 06:45 9.79 173 19800 (2015) 97 (2012) 4200 97 160 223 828 7160 10500 19800
2020-07-12 05:45 9.77 169 19800 (2015) 97 (2012) 4200 97 160 223 828 7160 10500 19800
2020-07-12 04:45 9.78 171 19800 (2015) 97 (2012) 4200 97 160 223 828 7160 10500 19800
2020-07-12 03:45 9.78 171 19800 (2015) 97 (2012) 4200 97 160 223 828 7160 10500 19800
2020-07-12 02:45 9.79 173 19800 (2015) 97 (2012) 4200 97 160 223 828 7160 10500 19800
2020-07-12 01:45 9.79 173 19800 (2015) 97 (2012) 4200 97 160 223 828 7160 10500 19800
2020-07-12 00:45 9.81 176 19800 (2015) 97 (2012) 4200 97 160 223 828 7160 10500 19800
2020-07-11 23:45 9.83 180 21000 (2015) 60 (2012) 5040 60 240 315 1210 9850 13400 21000
2020-07-11 22:45 9.85 184 21000 (2015) 60 (2012) 5040 60 240 315 1210 9850 13400 21000
2020-07-11 21:45 9.86 186 21000 (2015) 60 (2012) 5040 60 240 315 1210 9850 13400 21000
2020-07-11 20:45 9.85 184 21000 (2015) 60 (2012) 5040 60 240 315 1210 9850 13400 21000
2020-07-11 19:45 9.84 182 21000 (2015) 60 (2012) 5040 60 240 315 1210 9850 13400 21000
2020-07-11 18:45 9.82 178 21000 (2015) 60 (2012) 5040 60 240 315 1210 9850 13400 21000
2020-07-11 17:45 9.79 173 21000 (2015) 60 (2012) 5040 60 240 315 1210 9850 13400 21000
2020-07-11 16:45 9.78 171 21000 (2015) 60 (2012) 5040 60 240 315 1210 9850 13400 21000
2020-07-11 15:45 9.78 171 21000 (2015) 60 (2012) 5040 60 240 315 1210 9850 13400 21000
2020-07-11 14:45 9.76 167 21000 (2015) 60 (2012) 5040 60 240 315 1210 9850 13400 21000
2020-07-11 13:45 9.83 180 21000 (2015) 60 (2012) 5040 60 240 315 1210 9850 13400 21000
2020-07-11 12:45 9.87 188 21000 (2015) 60 (2012) 5040 60 240 315 1210 9850 13400 21000
2020-07-11 11:45 9.92 197 21000 (2015) 60 (2012) 5040 60 240 315 1210 9850 13400 21000
2020-07-11 10:45 9.94 201 21000 (2015) 60 (2012) 5040 60 240 315 1210 9850 13400 21000
2020-07-11 09:45 9.95 203 21000 (2015) 60 (2012) 5040 60 240 315 1210 9850 13400 21000
2020-07-11 08:45 9.94 201 21000 (2015) 60 (2012) 5040 60 240 315 1210 9850 13400 21000
2020-07-11 07:45 9.99 211 21000 (2015) 60 (2012) 5040 60 240 315 1210 9850 13400 21000
2020-07-11 06:45 10.01 216 21000 (2015) 60 (2012) 5040 60 240 315 1210 9850 13400 21000
2020-07-11 05:45 1 214 21000 (2015) 60 (2012) 5040 60 240 315 1210 9850 13400 21000
2020-07-11 04:45 9.98 209 21000 (2015) 60 (2012) 5040 60 240 315 1210 9850 13400 21000
2020-07-11 03:45 9.92 197 21000 (2015) 60 (2012) 5040 60 240 315 1210 9850 13400 21000
2020-07-11 02:45 9.80 175 21000 (2015) 60 (2012) 5040 60 240 315 1210 9850 13400 21000
2020-07-11 01:45 9.71 159 21000 (2015) 60 (2012) 5040 60 240 315 1210 9850 13400 21000
2020-07-11 00:45 9.64 147 21000 (2015) 60 (2012) 5040 60 240 315 1210 9850 13400 21000
2020-07-10 23:45 9.63 145 20800 (2015) 54 (2011) 5870 54 67 102 2320 13200 17700 20800
2020-07-10 22:45 9.66 150 20800 (2015) 54 (2011) 5870 54 67 102 2320 13200 17700 20800
2020-07-10 21:45 9.72 160 20800 (2015) 54 (2011) 5870 54 67 102 2320 13200 17700 20800
2020-07-10 20:45 9.80 175 20800 (2015) 54 (2011) 5870 54 67 102 2320 13200 17700 20800
2020-07-10 19:45 9.88 190 20800 (2015) 54 (2011) 5870 54 67 102 2320 13200 17700 20800
2020-07-10 18:45 9.94 201 20800 (2015) 54 (2011) 5870 54 67 102 2320 13200 17700 20800
2020-07-10 17:45 9.97 207 20800 (2015) 54 (2011) 5870 54 67 102 2320 13200 17700 20800
2020-07-10 16:45 9.99 211 20800 (2015) 54 (2011) 5870 54 67 102 2320 13200 17700 20800
2020-07-10 15:45 10.01 216 20800 (2015) 54 (2011) 5870 54 67 102 2320 13200 17700 20800
2020-07-10 14:45 10.02 218 20800 (2015) 54 (2011) 5870 54 67 102 2320 13200 17700 20800
2020-07-10 13:45 10.04 222 20800 (2015) 54 (2011) 5870 54 67 102 2320 13200 17700 20800
2020-07-10 12:45 10.07 229 20800 (2015) 54 (2011) 5870 54 67 102 2320 13200 17700 20800
2020-07-10 11:45 10.09 234 20800 (2015) 54 (2011) 5870 54 67 102 2320 13200 17700 20800
2020-07-10 10:45 10.14 246 20800 (2015) 54 (2011) 5870 54 67 102 2320 13200 17700 20800
2020-07-10 09:45 10.13 244 20800 (2015) 54 (2011) 5870 54 67 102 2320 13200 17700 20800
2020-07-10 08:45 10.15 249 20800 (2015) 54 (2011) 5870 54 67 102 2320 13200 17700 20800
2020-07-10 07:45 10.16 251 20800 (2015) 54 (2011) 5870 54 67 102 2320 13200 17700 20800
2020-07-10 06:45 10.16 251 20800 (2015) 54 (2011) 5870 54 67 102 2320 13200 17700 20800
2020-07-10 05:45 10.17 254 20800 (2015) 54 (2011) 5870 54 67 102 2320 13200 17700 20800
2020-07-10 04:45 10.17 254 20800 (2015) 54 (2011) 5870 54 67 102 2320 13200 17700 20800
2020-07-10 03:45 10.15 249 20800 (2015) 54 (2011) 5870 54 67 102 2320 13200 17700 20800
2020-07-10 02:45 10.08 232 20800 (2015) 54 (2011) 5870 54 67 102 2320 13200 17700 20800
2020-07-10 01:45 9.96 205 20800 (2015) 54 (2011) 5870 54 67 102 2320 13200 17700 20800
2020-07-10 00:45 9.83 180 20800 (2015) 54 (2011) 5870 54 67 102 2320 13200 17700 20800
2020-07-09 23:45 9.73 162 21000 (2019) 50 (2012) 6200 50 97 171 3580 13100 17700 21000
2020-07-09 22:45 9.73 162 21000 (2019) 50 (2012) 6200 50 97 171 3580 13100 17700 21000
2020-07-09 21:45 9.80 175 21000 (2019) 50 (2012) 6200 50 97 171 3580 13100 17700 21000
2020-07-09 20:45 9.87 188 21000 (2019) 50 (2012) 6200 50 97 171 3580 13100 17700 21000
2020-07-09 19:45 1 214 21000 (2019) 50 (2012) 6200 50 97 171 3580 13100 17700 21000
2020-07-09 18:45 10.11 239 21000 (2019) 50 (2012) 6200 50 97 171 3580 13100 17700 21000
2020-07-09 17:45 10.16 251 21000 (2019) 50 (2012) 6200 50 97 171 3580 13100 17700 21000
2020-07-09 16:45 10.19 259 21000 (2019) 50 (2012) 6200 50 97 171 3580 13100 17700 21000
2020-07-09 15:45 10.21 264 21000 (2019) 50 (2012) 6200 50 97 171 3580 13100 17700 21000
2020-07-09 14:45 10.23 269 21000 (2019) 50 (2012) 6200 50 97 171 3580 13100 17700 21000
2020-07-09 13:45 10.24 272 21000 (2019) 50 (2012) 6200 50 97 171 3580 13100 17700 21000
2020-07-09 12:45 10.27 280 21000 (2019) 50 (2012) 6200 50 97 171 3580 13100 17700 21000
2020-07-09 11:45 10.25 274 21000 (2019) 50 (2012) 6200 50 97 171 3580 13100 17700 21000
2020-07-09 10:45 10.29 285 21000 (2019) 50 (2012) 6200 50 97 171 3580 13100 17700 21000
2020-07-09 09:45 10.30 288 21000 (2019) 50 (2012) 6200 50 97 171 3580 13100 17700 21000
2020-07-09 08:45 10.36 304 21000 (2019) 50 (2012) 6200 50 97 171 3580 13100 17700 21000
2020-07-09 07:45 10.34 299 21000 (2019) 50 (2012) 6200 50 97 171 3580 13100 17700 21000
2020-07-09 06:45 10.36 304 21000 (2019) 50 (2012) 6200 50 97 171 3580 13100 17700 21000
2020-07-09 05:45 10.37 307 21000 (2019) 50 (2012) 6200 50 97 171 3580 13100 17700 21000
2020-07-09 04:45 10.39 313 21000 (2019) 50 (2012) 6200 50 97 171 3580 13100 17700 21000
2020-07-09 03:45 10.34 299 21000 (2019) 50 (2012) 6200 50 97 171 3580 13100 17700 21000
2020-07-09 02:45 10.24 272 21000 (2019) 50 (2012) 6200 50 97 171 3580 13100 17700 21000
2020-07-09 01:45 10.12 241 21000 (2019) 50 (2012) 6200 50 97 171 3580 13100 17700 21000
2020-07-09 00:45 10.01 216 21000 (2019) 50 (2012) 6200 50 97 171 3580 13100 17700 21000
2020-07-08 23:45 9.99 211 23200 (2019) 50 (2012) 5800 50 167 256 3930 9470 11400 23200
2020-07-08 22:45 10.05 225 23200 (2019) 50 (2012) 5800 50 167 256 3930 9470 11400 23200
2020-07-08 21:45 10.14 246 23200 (2019) 50 (2012) 5800 50 167 256 3930 9470 11400 23200
2020-07-08 20:45 10.23 269 23200 (2019) 50 (2012) 5800 50 167 256 3930 9470 11400 23200
2020-07-08 19:45 10.28 282 23200 (2019) 50 (2012) 5800 50 167 256 3930 9470 11400 23200
2020-07-08 18:45 10.31 290 23200 (2019) 50 (2012) 5800 50 167 256 3930 9470 11400 23200
2020-07-08 17:45 10.34 299 23200 (2019) 50 (2012) 5800 50 167 256 3930 9470 11400 23200
2020-07-08 16:45 10.37 307 23200 (2019) 50 (2012) 5800 50 167 256 3930 9470 11400 23200
2020-07-08 15:45 10.38 310 23200 (2019) 50 (2012) 5800 50 167 256 3930 9470 11400 23200
2020-07-08 14:45 10.37 307 23200 (2019) 50 (2012) 5800 50 167 256 3930 9470 11400 23200
2020-07-08 13:45 10.41 318 23200 (2019) 50 (2012) 5800 50 167 256 3930 9470 11400 23200
2020-07-08 12:45 10.45 330 23200 (2019) 50 (2012) 5800 50 167 256 3930 9470 11400 23200
2020-07-08 11:45 10.47 336 23200 (2019) 50 (2012) 5800 50 167 256 3930 9470 11400 23200
2020-07-08 10:45 10.50 345 23200 (2019) 50 (2012) 5800 50 167 256 3930 9470 11400 23200
2020-07-08 09:45 10.52 351 23200 (2019) 50 (2012) 5800 50 167 256 3930 9470 11400 23200
2020-07-08 08:45 10.55 361 23200 (2019) 50 (2012) 5800 50 167 256 3930 9470 11400 23200
2020-07-08 07:45 10.57 367 23200 (2019) 50 (2012) 5800 50 167 256 3930 9470 11400 23200
2020-07-08 06:45 10.60 377 23200 (2019) 50 (2012) 5800 50 167 256 3930 9470 11400 23200
2020-07-08 05:45 10.62 383 23200 (2019) 50 (2012) 5800 50 167 256 3930 9470 11400 23200
2020-07-08 04:45 10.59 373 23200 (2019) 50 (2012) 5800 50 167 256 3930 9470 11400 23200
2020-07-08 03:45 10.51 348 23200 (2019) 50 (2012) 5800 50 167 256 3930 9470 11400 23200
2020-07-08 02:45 10.37 307 23200 (2019) 50 (2012) 5800 50 167 256 3930 9470 11400 23200
2020-07-08 01:45 10.22 266 23200 (2019) 50 (2012) 5800 50 167 256 3930 9470 11400 23200
2020-07-08 00:45 10.17 254 23200 (2019) 50 (2012) 5800 50 167 256 3930 9470 11400 23200
2020-07-07 23:45 10.18 256 20300 (2019) 50 (2012) 5650 50 140 237 4090 10200 13200 20300
2020-07-07 22:45 10.25 274 20300 (2019) 50 (2012) 5650 50 140 237 4090 10200 13200 20300
2020-07-07 21:45 10.33 296 20300 (2019) 50 (2012) 5650 50 140 237 4090 10200 13200 20300
2020-07-07 20:45 10.41 318 20300 (2019) 50 (2012) 5650 50 140 237 4090 10200 13200 20300
2020-07-07 19:45 10.53 354 20300 (2019) 50 (2012) 5650 50 140 237 4090 10200 13200 20300
2020-07-07 18:45 10.56 364 20300 (2019) 50 (2012) 5650 50 140 237 4090 10200 13200 20300
2020-07-07 17:45 10.65 393 20300 (2019) 50 (2012) 5650 50 140 237 4090 10200 13200 20300
2020-07-07 16:45 10.68 403 20300 (2019) 50 (2012) 5650 50 140 237 4090 10200 13200 20300
2020-07-07 15:45 10.71 413 20300 (2019) 50 (2012) 5650 50 140 237 4090 10200 13200 20300
2020-07-07 14:45 10.73 420 20300 (2019) 50 (2012) 5650 50 140 237 4090 10200 13200 20300
2020-07-07 13:45 10.76 430 20300 (2019) 50 (2012) 5650 50 140 237 4090 10200 13200 20300
2020-07-07 12:45 10.77 434 20300 (2019) 50 (2012) 5650 50 140 237 4090 10200 13200 20300
2020-07-07 11:45 10.77 434 20300 (2019) 50 (2012) 5650 50 140 237 4090 10200 13200 20300
2020-07-07 10:45 10.82 451 20300 (2019) 50 (2012) 5650 50 140 237 4090 10200 13200 20300
2020-07-07 09:45 10.84 459 20300 (2019) 50 (2012) 5650 50 140 237 4090 10200 13200 20300
2020-07-07 08:45 10.84 459 20300 (2019) 50 (2012) 5650 50 140 237 4090 10200 13200 20300
2020-07-07 07:45 10.84 459 20300 (2019) 50 (2012) 5650 50 140 237 4090 10200 13200 20300
2020-07-07 06:45 10.84 459 20300 (2019) 50 (2012) 5650 50 140 237 4090 10200 13200 20300
2020-07-07 05:45 10.85 462 20300 (2019) 50 (2012) 5650 50 140 237 4090 10200 13200 20300
2020-07-07 04:45 10.85 462 20300 (2019) 50 (2012) 5650 50 140 237 4090 10200 13200 20300
2020-07-07 03:45 10.82 451 20300 (2019) 50 (2012) 5650 50 140 237 4090 10200 13200 20300
2020-07-07 02:45 10.74 423 20300 (2019) 50 (2012) 5650 50 140 237 4090 10200 13200 20300
2020-07-07 01:45 10.61 380 20300 (2019) 50 (2012) 5650 50 140 237 4090 10200 13200 20300
2020-07-07 00:45 10.47 336 20300 (2019) 50 (2012) 5650 50 140 237 4090 10200 13200 20300
2020-07-06 23:45 10.43 324 14900 (2019) 50 (2012) 5810 50 133 327 3220 12200 13600 14900
2020-07-06 22:45 10.47 336 14900 (2019) 50 (2012) 5810 50 133 327 3220 12200 13600 14900
2020-07-06 21:45 10.53 354 14900 (2019) 50 (2012) 5810 50 133 327 3220 12200 13600 14900
2020-07-06 20:45 10.61 380 14900 (2019) 50 (2012) 5810 50 133 327 3220 12200 13600 14900
2020-07-06 19:45 10.69 406 14900 (2019) 50 (2012) 5810 50 133 327 3220 12200 13600 14900
2020-07-06 18:45 10.74 423 14900 (2019) 50 (2012) 5810 50 133 327 3220 12200 13600 14900
2020-07-06 17:45 10.75 427 14900 (2019) 50 (2012) 5810 50 133 327 3220 12200 13600 14900
2020-07-06 16:45 10.73 420 14900 (2019) 50 (2012) 5810 50 133 327 3220 12200 13600 14900
2020-07-06 15:45 10.76 430 14900 (2019) 50 (2012) 5810 50 133 327 3220 12200 13600 14900
2020-07-06 14:45 10.74 423 14900 (2019) 50 (2012) 5810 50 133 327 3220 12200 13600 14900
2020-07-06 13:45 10.76 430 14900 (2019) 50 (2012) 5810 50 133 327 3220 12200 13600 14900
2020-07-06 12:45 10.76 430 14900 (2019) 50 (2012) 5810 50 133 327 3220 12200 13600 14900
2020-07-06 11:45 10.77 434 14900 (2019) 50 (2012) 5810 50 133 327 3220 12200 13600 14900
2020-07-06 10:45 10.79 441 14900 (2019) 50 (2012) 5810 50 133 327 3220 12200 13600 14900
2020-07-06 09:45 10.80 444 14900 (2019) 50 (2012) 5810 50 133 327 3220 12200 13600 14900
2020-07-06 08:45 10.81 448 14900 (2019) 50 (2012) 5810 50 133 327 3220 12200 13600 14900
2020-07-06 07:45 10.77 434 14900 (2019) 50 (2012) 5810 50 133 327 3220 12200 13600 14900
2020-07-06 06:45 10.79 441 14900 (2019) 50 (2012) 5810 50 133 327 3220 12200 13600 14900
2020-07-06 05:45 10.77 434 14900 (2019) 50 (2012) 5810 50 133 327 3220 12200 13600 14900
2020-07-06 04:45 10.77 434 14900 (2019) 50 (2012) 5810 50 133 327 3220 12200 13600 14900
2020-07-06 03:45 10.78 437 14900 (2019) 50 (2012) 5810 50 133 327 3220 12200 13600 14900
2020-07-06 02:45 10.75 427 14900 (2019) 50 (2012) 5810 50 133 327 3220 12200 13600 14900
2020-07-06 01:45 10.70 410 14900 (2019) 50 (2012) 5810 50 133 327 3220 12200 13600 14900
2020-07-06 00:45 10.66 396 14900 (2019) 50 (2012) 5810 50 133 327 3220 12200 13600 14900

A total of 187 rows are displayed for years 2011 through 2019.